pic not found

MONITORING PENGADAAN SECARA ELEKTRONIK

Bagian Pengadaan Barang dan Jasa
Sekretariat Daerah Kabupaten Magetan
Tahun Anggaran2025



MONITORING NON TENDER

Informasi

1. Data Non Tender merupakan Paket Non Tender dengan status "Paket Sudah Selesai" yang diambil dari SPSE .
2. Monitoring Non Tender digunakan untuk memastikan PPK telah menginputkan E-kontrak pada SPSE dan Penilaian Kinerja Penyedia pada SIKaP
3. Status Penilaian Kinerja = "Terisi" jika PPK telah melakukan penilaian kinerja pada aplikasi SIKaP.


Tim LPSE Kabupaten Magetan Last Update    2025-12-22
Showing 3,641-3,660 of 9,716 items.
#Nama SatkerKd NontenderKd RupNama PaketPaguHpsNilai KontrakSumber DanaTanggal Selesai NontenderNama PenyediaStatus Penilaian Kinerja
 
3641DINAS TANAMAN PANGAN, HORTIKULTURA DAN PERKEBUNAN1272625546293900Tenaga Keamanan 322,220,000022,220,000APBD2024-01-05 16:00:00REZA NUGROHO AWANTORO(not set)
3642DINAS TANAMAN PANGAN, HORTIKULTURA DAN PERKEBUNAN1273625546295976Tenaga Penjaga Malam 722,220,000022,220,000APBD2024-01-05 16:00:00Trio nova aditama(not set)
3643DINAS TANAMAN PANGAN, HORTIKULTURA DAN PERKEBUNAN1273125546294482Tenaga Penjaga Malam 222,220,000022,220,000APBD2024-01-05 16:00:00bandi(not set)
3644DINAS TANAMAN PANGAN, HORTIKULTURA DAN PERKEBUNAN1273425546295601Tenaga Penjaga Malam 522,220,000022,220,000APBD2024-01-05 16:00:00suharno(not set)
3645DINAS PERINDUSTRIAN DAN PERDAGANGAN1298225546575910Belanja Jasa Tenaga Operator Komputer19,500,000019,500,000APBD2024-01-05 15:30:00binti nur indra qur'aini(not set)
3646DINAS PERINDUSTRIAN DAN PERDAGANGAN1299925546644652Belanja Jasa Kebersihan Pasar (Dibawah 10 Tahun_50)16,250,000016,250,000APBD2024-01-05 15:30:00Azizah Agustina(not set)
3647KECAMATAN SUKOMORO1286025546349129Belanja Jasa Tenaga kebersihan22,750,000022,750,000APBD2024-01-05 15:30:00ANISA KARMAN(not set)
3648DINAS TANAMAN PANGAN, HORTIKULTURA DAN PERKEBUNAN1274325546296519Belanja Jasa Tenaga Kebersihan 722,220,000022,220,000APBD2024-01-05 15:00:00RINIINDARSIH(not set)
3649DINAS TANAMAN PANGAN, HORTIKULTURA DAN PERKEBUNAN1275425546297171Belanja Jasa Pelayanan Umum Tenaga Administrasi 722,220,000022,220,000APBD2024-01-05 15:00:00NIKITA FIBRI DWI PERMATA SARI(not set)
3650DINAS TANAMAN PANGAN, HORTIKULTURA DAN PERKEBUNAN1275725546297317Belanja Jasa Pelayanan Umum Tenaga Administrasi 1022,220,000022,220,000APBD2024-01-05 15:00:00Ratih Nur Pratiwi(not set)
3651DINAS TANAMAN PANGAN, HORTIKULTURA DAN PERKEBUNAN1273825546296120Belanja Jasa Tenaga Kebersihan 222,220,000022,220,000APBD2024-01-05 15:00:00Pipit widyantoro(not set)
3652DINAS TANAMAN PANGAN, HORTIKULTURA DAN PERKEBUNAN1275125546296944Belanja Jasa Pelayanan Umum Tenaga Administrasi 422,220,000022,220,000APBD2024-01-05 15:00:00PUTRA APRISIYANTO(not set)
3653KELURAHAN SARANGAN1277525546358759Belanja Jasa Tenaga Administrasi 389,817,000029,939,000APBD2024-01-05 15:00:00IWAN SAPUTRO(not set)
3654DINAS TANAMAN PANGAN, HORTIKULTURA DAN PERKEBUNAN1275525546297211Belanja Jasa Pelayanan Umum Tenaga Administrasi 822,220,000022,220,000APBD2024-01-05 15:00:00Teresa Puji Astuti(not set)
3655DINAS TANAMAN PANGAN, HORTIKULTURA DAN PERKEBUNAN1275825546297353Belanja Jasa Pelayanan Umum Tenaga Administrasi 1122,220,000022,220,000APBD2024-01-05 15:00:00DIAN SEYLA ACHMI(not set)
3656DINAS TANAMAN PANGAN, HORTIKULTURA DAN PERKEBUNAN1275025546296891Belanja Jasa Pelayanan Umum Tenaga Administrasi 322,220,000022,220,000APBD2024-01-05 15:00:00Dewi Mulyani(not set)
3657KELURAHAN SARANGAN1277825546358760Belanja Jasa Petugas Pemantau Wilayah 397,500,000019,500,000APBD2024-01-05 15:00:00Suparman(not set)
3658DINAS TANAMAN PANGAN, HORTIKULTURA DAN PERKEBUNAN1274425546296584Belanja Jasa Tenaga Kebersihan 822,220,000022,220,000APBD2024-01-05 15:00:00Eko prasetiyo(not set)
3659DINAS TANAMAN PANGAN, HORTIKULTURA DAN PERKEBUNAN1274925546296853Belanja Jasa Pelayanan Umum Tenaga Administrasi 222,220,000022,220,000APBD2024-01-05 15:00:00LISA RATNASARI(not set)
3660KELURAHAN SARANGAN1277325546358759Belanja Jasa Tenaga Administrasi 189,817,000029,939,000APBD2024-01-05 15:00:00WAWAN ARIF PRASETYO(not set)

MONITORING TENDER

Informasi

1. Data Tender merupakan Paket Tender dengan status "Paket Sudah Selesai" yang diambil dari SPSE .
2. Monitoring Tender digunakan untuk memastikan PPK telah menginputkan E-kontrak pada SPSE dan Penilaian Kinerja Penyedia pada SIKaP
3. Status Penilaian Kinerja = "Terisi" jika PPK telah melakukan penilaian kinerja pada aplikasi SIKaP.


Tim LPSE Kabupaten Magetan Last Update    2025-12-22
Showing 1-20 of 89 items.
#Kd TenderTahun AnggaranNama SatkerKd RupNama PaketPaguHpsSumber DanaNilai KontrakNama PenyediaTgl Penetapan PemenangStatus Penilaian Kinerja
1100868530002025DINAS PEKERJAAN UMUM DAN PENATAAN RUANG54689775Pembangunan Embung Sidowayah650000000649141000APBD619648601WIJAYA KARYA SEJATI2025-10-10 17:00:00(not set)
2100868510002025DINAS PEKERJAAN UMUM DAN PENATAAN RUANG54689777Pembangunan Embung Kawedanan, Terung500000000497008000APBD472778577CV. Surya Galaxy2025-10-10 17:00:00(not set)
3100850540002025DINAS PEKERJAAN UMUM DAN PENATAAN RUANG60291185Pemeliharaan Berkala Jalan Tebon-Stasiun Magetan13150000001307940000APBDP(not set)(not set)2025-10-03 11:30:00(not set)
4100815940002025DINAS PEKERJAAN UMUM DAN PENATAAN RUANG60296716Pembangunan Sumur Air Tanah Dalam SDKMG Desa Tladan dan Desa Botok, Beserta Peralatan dan Pemasangan Pompa13000000001300000000APBD1268000000CV. BUDI LUHUR2025-10-01 14:00:00(not set)
5100804910002025DINAS PEKERJAAN UMUM DAN PENATAAN RUANG60296695Pembangunan Sumur Air Tanah Dalam SDKMG Desa Tapen dan Desa Tambakmas, Beserta Peralatan dan Pemasangan Pompa11000000001100000000APBD1075000000CV. ROHMAT2025-10-01 14:00:00(not set)
6100800490002025DINAS PEKERJAAN UMUM DAN PENATAAN RUANG60461662Rehabilitasi Jaringan Irigasi DI Sadon560100000555348000APBD444278400PURWOTO2025-09-29 16:00:00(not set)
7100233980002025DINAS KESEHATAN54938336Jasa Konsultansi Pengawasan Pembangunan Gedung Rumah Sakit (Puskesmas Panekan)300000000299977500APBD240481500PT. PILAREMPAT CONSULTAN2025-05-28 16:00:00(not set)
8120832552024DINAS PENDIDIKAN, KEPEMUDAAN DAN OLAHRAGA47581846Jasa Konsultansi Pengawasan Pembangunan Sirkuit Kabupaten Magetan350157300349999983APBD317922038PT. SKALA PILAR LIMA2024-07-30 15:30:00(not set)
9120822552024BADAN PERENCANAAN PEMBANGUNAN, PENELITIAN DAN PENGEMBANGAN DAERAH51431929Jasa Konsultansi Mitigasi Perubahan Iklim Melalui Identifikasi Karbon200000000198168300APBD166722000PT TOTAL CIPTA PERSADA2024-07-25 16:00:00(not set)
10109922552023DINAS PEKERJAAN UMUM DAN PENATAAN RUANG44138092Pemeliharaan Berkala Jalan Genengan - Takeran18000000001791317000APBD(not set)(not set)2023-11-10 14:30:00(not set)
11109842552023KECAMATAN MAOSPATI40341941BELANJA MODAL BANGUNAN GEDUNG TEMPAT KERJA LAINNYA PEMBANGUNAN LANJUTAN GEDUNG KEBUDAYAAN240000000237931000APBD190344800CV. VAMROZ BINTANG PRATAMA2023-10-11 14:30:00(not set)
12109512552023DINAS KESEHATAN43956365Pembangunan Puskesmas Pembantu Ngelang600000000447418000APBD357934400SALSA MANDIRI2023-09-22 16:30:00(not set)
13109722552023DINAS PENDIDIKAN, KEPEMUDAAN DAN OLAHRAGA43870656Jasa Konsultansi Perencanaan dan Penyusunan Masterplan Pembangunan Sirkuit Kabupaten Magetan800000000776178600APBD776056500CV. CIPTA PURNAMA MANDIRI2023-09-21 19:00:00(not set)
14108652552023DINAS PENDIDIKAN, KEPEMUDAAN DAN OLAHRAGA42710723Rehabilitasi Ruang Kelas SMPN 1 Kawedanan546000000543734000APBD434987200ESTETIKA CV2023-09-15 15:00:00(not set)
15108662552023DINAS PENDIDIKAN, KEPEMUDAAN DAN OLAHRAGA42708925Rehabilitasi Ruang Kelas SMPN 1 Nguntoronadi700000000697732000APBD558185600CV.DEA KONTRAKTOR2023-09-15 15:00:00(not set)
16108672552023DINAS PENDIDIKAN, KEPEMUDAAN DAN OLAHRAGA42710780Rehabilitasi Ruang Kelas SMPN 1 Plaosan500000000499724000APBD399779200ESTETIKA CV2023-09-08 15:00:00(not set)
17108682552023DINAS PENDIDIKAN, KEPEMUDAAN DAN OLAHRAGA42710943Rehabilitasi Ruang Kelas SMPN 4 Magetan700000000698736000APBD558988800CV. Jalu Mampang2023-09-08 15:00:00(not set)
18109702552023DINAS PETERNAKAN DAN PERIKANAN40159675Pembangunan Konstruksi KSL Lanjutan1100000000904700000APBD741379925CV KRISNA DWI KARYA2023-08-29 17:00:00(not set)
19109502552023DINAS PEKERJAAN UMUM DAN PENATAAN RUANG43049995Pembangunan Plaza Ndoyo12500000001249640000APBD1083394356CV. BUDI LUHUR2023-08-23 15:15:00(not set)
20109622552023DINAS PEKERJAAN UMUM DAN PENATAAN RUANG39676632Rehabilitasi Jalan Karas-Kuwon452000000445467000APBD356373600SALSA MANDIRI2023-08-15 16:30:00(not set)